Time,TemperatureF,DewpointF,PressureIn,WindDirection,WindDirectionDegrees,WindSpeedMPH,WindSpeedGustMPH,Humidity,HourlyPrecipIn,Conditions,Clouds,dailyrainin,SoftwareType,DateUTC
2013-03-04 00:00:00,50.9,-99.9,30.00,ESE,105,0.0,0.0,-999,-99.99,,,-99.99,,2013-03-04 08:00:00,
2013-03-04 00:10:00,50.6,-99.9,29.99,ESE,105,0.0,0.0,-999,-99.99,,,-99.99,,2013-03-04 08:10:00,
2013-03-04 00:20:00,50.4,-99.9,29.99,East,91,0.0,13.7,-999,-99.99,,,-99.99,,2013-03-04 08:20:00,
2013-03-04 00:25:00,50.3,-99.9,29.99,ENE,76,0.0,8.0,-999,-99.99,,,-99.99,,2013-03-04 08:25:00,
2013-03-04 00:30:00,50.2,-99.9,29.99,NE,47,0.0,0.0,-999,-99.99,,,-99.99,,2013-03-04 08:30:00,
2013-03-04 00:35:00,50.5,-99.9,30.00,NE,47,0.0,0.0,-999,-99.99,,,-99.99,,2013-03-04 08:35:00,
2013-03-04 00:40:00,50.3,-99.9,30.00,NE,47,0.0,0.0,-999,-99.99,,,-99.99,,2013-03-04 08:40:00,
2013-03-04 00:50:00,50.7,-99.9,30.00,ESE,115,0.0,0.0,-999,-99.99,,,-99.99,,2013-03-04 08:50:00,
2013-03-04 00:55:00,50.3,-99.9,30.00,ESE,115,0.0,0.0,-999,-99.99,,,-99.99,,2013-03-04 08:55:00,
2013-03-04 01:00:00,50.5,-99.9,30.01,ESE,115,0.0,0.0,-999,-99.99,,,-99.99,,2013-03-04 09:00:00,
2013-03-04 01:05:00,50.5,-99.9,30.01,ESE,115,0.0,0.0,-999,-99.99,,,-99.99,,2013-03-04 09:05:00,
2013-03-04 01:10:00,50.3,-99.9,30.01,ESE,115,0.0,0.0,-999,-99.99,,,-99.99,,2013-03-04 09:10:00,
2013-03-04 01:15:00,50.2,-99.9,30.01,ESE,115,0.0,0.0,-999,-99.99,,,-99.99,,2013-03-04 09:15:00,
2013-03-04 01:20:00,50.2,-99.9,30.02,ESE,115,0.0,0.0,-999,-99.99,,,-99.99,,2013-03-04 09:20:00,
2013-03-04 01:30:00,50.3,-99.9,30.01,ESE,115,0.0,0.0,-999,-99.99,,,-99.99,,2013-03-04 09:30:00,
2013-03-04 01:35:00,50.5,-99.9,30.01,ESE,115,0.0,0.0,-999,-99.99,,,-99.99,,2013-03-04 09:35:00,
2013-03-04 01:40:00,50.2,-99.9,30.01,ESE,115,0.0,0.0,-999,-99.99,,,-99.99,,2013-03-04 09:40:00,
2013-03-04 01:50:00,50.2,-99.9,30.01,ESE,115,0.0,0.0,-999,-99.99,,,-99.99,,2013-03-04 09:50:00,
2013-03-04 02:00:00,50.0,-99.9,30.01,ESE,115,0.0,0.0,-999,-99.99,,,-99.99,,2013-03-04 10:00:00,
2013-03-04 02:10:00,49.8,-99.9,30.01,ESE,115,0.0,0.0,-999,-99.99,,,-99.99,,2013-03-04 10:10:00,
2013-03-04 02:20:00,49.5,-99.9,30.01,ESE,115,0.0,0.0,-999,-99.99,,,-99.99,,2013-03-04 10:20:00,
2013-03-04 02:25:00,49.2,-99.9,30.01,ESE,115,0.0,0.0,-999,-99.99,,,-99.99,,2013-03-04 10:25:00,
2013-03-04 02:30:00,49.4,-99.9,30.01,ESE,115,0.0,0.0,-999,-99.99,,,-99.99,,2013-03-04 10:30:00,
2013-03-04 02:40:00,49.3,-99.9,30.01,ESE,115,0.0,0.0,-999,-99.99,,,-99.99,,2013-03-04 10:40:00,
2013-03-04 02:50:00,49.6,-99.9,30.01,ESE,115,0.0,0.0,-999,-99.99,,,-99.99,,2013-03-04 10:50:00,
2013-03-04 02:55:00,49.0,-99.9,30.01,ESE,115,0.0,0.0,-999,-99.99,,,-99.99,,2013-03-04 10:55:00,
2013-03-04 03:00:00,49.2,-99.9,30.01,ESE,115,0.0,0.0,-999,-99.99,,,-99.99,,2013-03-04 11:00:00,
2013-03-04 03:10:00,48.9,-99.9,30.01,ESE,115,0.0,0.0,-999,-99.99,,,-99.99,,2013-03-04 11:10:00,
2013-03-04 03:20:00,48.6,-99.9,30.01,ESE,115,0.0,0.0,-999,-99.99,,,-99.99,,2013-03-04 11:20:00,
2013-03-04 03:25:00,48.5,-99.9,30.01,ESE,115,0.0,0.0,-999,-99.99,,,-99.99,,2013-03-04 11:25:00,
2013-03-04 03:30:00,48.9,-99.9,30.01,ESE,115,0.0,0.0,-999,-99.99,,,-99.99,,2013-03-04 11:30:00,
2013-03-04 03:40:00,49.1,-99.9,30.01,ESE,115,0.0,0.0,-999,-99.99,,,-99.99,,2013-03-04 11:40:00,
2013-03-04 03:50:00,49.3,-99.9,30.00,ESE,115,0.0,0.0,-999,-99.99,,,-99.99,,2013-03-04 11:50:00,
2013-03-04 04:00:00,48.9,-99.9,30.00,ESE,115,0.0,0.0,-999,-99.99,,,-99.99,,2013-03-04 12:00:00,
2013-03-04 04:05:00,49.1,-99.9,30.00,ESE,115,0.0,0.0,-999,-99.99,,,-99.99,,2013-03-04 12:05:00,
2013-03-04 04:10:00,49.1,-99.9,30.01,ESE,115,0.0,0.0,-999,-99.99,,,-99.99,,2013-03-04 12:10:00,
2013-03-04 04:15:00,49.2,-99.9,30.01,ESE,115,0.0,0.0,-999,-99.99,,,-99.99,,2013-03-04 12:15:00,
2013-03-04 04:20:00,49.4,-99.9,30.01,ESE,115,0.0,0.0,-999,-99.99,,,-99.99,,2013-03-04 12:20:00,
2013-03-04 04:25:00,49.3,-99.9,30.01,ESE,115,0.0,0.0,-999,-99.99,,,-99.99,,2013-03-04 12:25:00,
2013-03-04 04:30:00,49.1,-99.9,30.01,ESE,115,0.0,0.0,-999,-99.99,,,-99.99,,2013-03-04 12:30:00,
2013-03-04 04:35:00,49.1,-99.9,30.01,ESE,115,0.0,0.0,-999,-99.99,,,-99.99,,2013-03-04 12:35:00,
2013-03-04 04:40:00,49.1,-99.9,30.01,ESE,115,0.0,0.0,-999,-99.99,,,-99.99,,2013-03-04 12:40:00,
2013-03-04 04:45:00,49.1,-99.9,30.01,ESE,115,0.0,0.0,-999,-99.99,,,-99.99,,2013-03-04 12:45:00,
2013-03-04 04:50:00,49.2,-99.9,30.01,ESE,115,0.0,0.0,-999,-99.99,,,-99.99,,2013-03-04 12:50:00,
2013-03-04 05:00:00,49.1,-99.9,30.01,ESE,115,0.0,0.0,-999,-99.99,,,-99.99,,2013-03-04 13:00:00,
2013-03-04 05:10:00,49.1,-99.9,30.01,ESE,115,0.0,0.0,-999,-99.99,,,-99.99,,2013-03-04 13:10:00,
2013-03-04 05:20:00,49.1,-99.9,30.02,ESE,115,0.0,0.0,-999,-99.99,,,-99.99,,2013-03-04 13:20:00,
2013-03-04 05:30:00,49.1,-99.9,30.02,ESE,115,0.0,0.0,-999,-99.99,,,-99.99,,2013-03-04 13:30:00,
2013-03-04 05:40:00,49.2,-99.9,30.02,ESE,115,0.0,0.0,-999,-99.99,,,-99.99,,2013-03-04 13:40:00,
2013-03-04 05:50:00,48.9,-99.9,30.02,ESE,115,0.0,0.0,-999,-99.99,,,-99.99,,2013-03-04 13:50:00,
2013-03-04 06:00:00,49.0,-99.9,30.02,ESE,115,0.0,0.0,-999,-99.99,,,-99.99,,2013-03-04 14:00:00,
2013-03-04 06:10:00,48.9,-99.9,30.02,ESE,115,0.0,0.0,-999,-99.99,,,-99.99,,2013-03-04 14:10:00,
2013-03-04 06:20:00,49.1,-99.9,30.02,ESE,115,0.0,0.0,-999,-99.99,,,-99.99,,2013-03-04 14:20:00,
2013-03-04 06:30:00,48.9,-99.9,30.03,ESE,115,0.0,0.0,-999,-99.99,,,-99.99,,2013-03-04 14:30:00,
2013-03-04 06:40:00,49.1,-99.9,30.03,ESE,115,0.0,0.0,-999,-99.99,,,-99.99,,2013-03-04 14:40:00,
2013-03-04 06:50:00,48.9,-99.9,30.03,ESE,115,0.0,0.0,-999,-99.99,,,-99.99,,2013-03-04 14:50:00,
2013-03-04 06:55:00,48.9,-99.9,30.03,ESE,115,0.0,0.0,-999,-99.99,,,-99.99,,2013-03-04 14:55:00,
2013-03-04 07:00:00,48.7,-99.9,30.03,ESE,115,0.0,0.0,-999,-99.99,,,-99.99,,2013-03-04 15:00:00,
2013-03-04 07:10:00,48.7,-99.9,30.03,ESE,115,0.0,0.0,-999,-99.99,,,-99.99,,2013-03-04 15:10:00,
2013-03-04 07:20:00,48.8,-99.9,30.02,ESE,115,0.0,0.0,-999,-99.99,,,-99.99,,2013-03-04 15:20:00,
2013-03-04 07:25:00,48.6,-99.9,30.03,East,84,0.0,8.2,-999,-99.99,,,-99.99,,2013-03-04 15:25:00,
2013-03-04 07:30:00,48.7,-99.9,30.03,East,84,0.0,0.0,-999,-99.99,,,-99.99,,2013-03-04 15:30:00,
2013-03-04 07:40:00,49.0,-99.9,30.04,East,84,0.0,0.0,-999,-99.99,,,-99.99,,2013-03-04 15:40:00,
2013-03-04 07:45:00,48.8,-99.9,30.04,East,84,0.0,0.0,-999,-99.99,,,-99.99,,2013-03-04 15:45:00,
2013-03-04 07:50:00,48.7,-99.9,30.04,East,84,0.0,0.0,-999,-99.99,,,-99.99,,2013-03-04 15:50:00,
2013-03-04 08:00:00,48.9,-99.9,30.05,East,84,0.0,0.0,-999,-99.99,,,-99.99,,2013-03-04 16:00:00,
2013-03-04 08:05:00,49.0,-99.9,30.05,East,84,0.0,0.0,-999,-99.99,,,-99.99,,2013-03-04 16:05:00,
2013-03-04 08:10:00,48.9,-99.9,30.05,East,84,0.0,0.0,-999,-99.99,,,-99.99,,2013-03-04 16:10:00,
2013-03-04 08:15:00,49.0,-99.9,30.05,East,84,0.0,0.0,-999,-99.99,,,-99.99,,2013-03-04 16:15:00,
2013-03-04 08:20:00,48.9,-99.9,30.05,East,84,0.0,0.0,-999,-99.99,,,-99.99,,2013-03-04 16:20:00,
2013-03-04 08:30:00,48.9,-99.9,30.06,East,84,0.0,0.0,-999,-99.99,,,-99.99,,2013-03-04 16:30:00,
2013-03-04 08:35:00,48.9,-99.9,30.06,East,84,0.0,0.0,-999,-99.99,,,-99.99,,2013-03-04 16:35:00,
2013-03-04 08:40:00,48.8,-99.9,30.06,East,84,0.0,0.0,-999,-99.99,,,-99.99,,2013-03-04 16:40:00,
2013-03-04 08:50:00,49.0,-99.9,30.06,East,84,0.0,0.0,-999,-99.99,,,-99.99,,2013-03-04 16:50:00,
2013-03-04 08:55:00,49.2,-99.9,30.06,East,84,0.0,0.0,-999,-99.99,,,-99.99,,2013-03-04 16:55:00,
2013-03-04 09:00:00,49.1,-99.9,30.06,East,84,0.0,0.0,-999,-99.99,,,-99.99,,2013-03-04 17:00:00,
2013-03-04 09:10:00,49.4,-99.9,30.06,East,84,0.0,0.0,-999,-99.99,,,-99.99,,2013-03-04 17:10:00,
2013-03-04 09:15:00,49.4,-99.9,30.06,East,84,0.0,0.0,-999,-99.99,,,-99.99,,2013-03-04 17:15:00,
2013-03-04 09:20:00,49.5,-99.9,30.06,East,84,0.0,0.0,-999,-99.99,,,-99.99,,2013-03-04 17:20:00,
2013-03-04 09:25:00,49.5,-99.9,30.06,East,84,0.0,0.0,-999,-99.99,,,-99.99,,2013-03-04 17:25:00,
2013-03-04 09:30:00,49.4,-99.9,30.06,East,84,0.0,0.0,-999,-99.99,,,-99.99,,2013-03-04 17:30:00,
2013-03-04 09:35:00,49.5,-99.9,30.06,East,84,0.0,0.0,-999,-99.99,,,-99.99,,2013-03-04 17:35:00,
2013-03-04 09:40:00,49.6,-99.9,30.07,East,84,0.0,0.0,-999,-99.99,,,-99.99,,2013-03-04 17:40:00,
2013-03-04 09:45:00,49.5,-99.9,30.06,East,84,0.0,0.0,-999,-99.99,,,-99.99,,2013-03-04 17:45:00,
2013-03-04 09:50:00,49.6,-99.9,30.07,East,84,0.0,0.0,-999,-99.99,,,-99.99,,2013-03-04 17:50:00,
2013-03-04 09:55:00,49.6,-99.9,30.07,East,84,0.0,0.0,-999,-99.99,,,-99.99,,2013-03-04 17:55:00,
2013-03-04 10:00:00,49.8,-99.9,30.06,East,84,0.0,0.0,-999,-99.99,,,-99.99,,2013-03-04 18:00:00,
2013-03-04 10:05:00,49.9,-99.9,30.06,East,84,0.0,0.0,-999,-99.99,,,-99.99,,2013-03-04 18:05:00,
2013-03-04 10:10:00,50.0,-99.9,30.06,East,84,0.0,0.0,-999,-99.99,,,-99.99,,2013-03-04 18:10:00,
2013-03-04 10:15:00,50.1,-99.9,30.07,East,84,0.0,0.0,-999,-99.99,,,-99.99,,2013-03-04 18:15:00,
2013-03-04 10:20:00,50.2,-99.9,30.06,East,84,0.0,0.0,-999,-99.99,,,-99.99,,2013-03-04 18:20:00,
2013-03-04 10:30:00,50.2,-99.9,30.06,East,84,0.0,0.0,-999,-99.99,,,-99.99,,2013-03-04 18:30:00,
2013-03-04 10:35:00,50.4,-99.9,30.06,East,84,0.0,0.0,-999,-99.99,,,-99.99,,2013-03-04 18:35:00,
2013-03-04 10:40:00,50.6,-99.9,30.06,East,84,0.0,0.0,-999,-99.99,,,-99.99,,2013-03-04 18:40:00,
2013-03-04 10:45:00,50.6,-99.9,30.06,East,84,0.0,0.0,-999,-99.99,,,-99.99,,2013-03-04 18:45:00,
2013-03-04 10:50:00,50.7,-99.9,30.06,East,84,0.0,0.0,-999,-99.99,,,-99.99,,2013-03-04 18:50:00,
2013-03-04 10:55:00,50.8,-99.9,30.06,East,84,0.0,0.0,-999,-99.99,,,-99.99,,2013-03-04 18:55:00,
2013-03-04 11:00:00,51.0,-99.9,30.06,East,84,0.0,0.0,-999,-99.99,,,-99.99,,2013-03-04 19:00:00,
2013-03-04 11:05:00,51.0,-99.9,30.06,East,84,0.0,0.0,-999,-99.99,,,-99.99,,2013-03-04 19:05:00,
2013-03-04 11:10:00,51.1,-99.9,30.06,East,84,0.0,0.0,-999,-99.99,,,-99.99,,2013-03-04 19:10:00,
2013-03-04 11:15:00,51.1,-99.9,30.06,East,84,0.0,0.0,-999,-99.99,,,-99.99,,2013-03-04 19:15:00,
2013-03-04 11:20:00,51.1,-99.9,30.07,East,84,0.0,8.9,-999,-99.99,,,-99.99,,2013-03-04 19:20:00,
2013-03-04 11:25:00,51.0,-99.9,30.07,East,84,0.0,0.0,-999,-99.99,,,-99.99,,2013-03-04 19:25:00,
2013-03-04 11:30:00,51.1,-99.9,30.07,East,84,0.0,0.0,-999,-99.99,,,-99.99,,2013-03-04 19:30:00,
2013-03-04 11:35:00,51.2,-99.9,30.07,East,84,0.0,0.0,-999,-99.99,,,-99.99,,2013-03-04 19:35:00,
2013-03-04 11:40:00,51.4,-99.9,30.07,East,84,0.0,0.0,-999,-99.99,,,-99.99,,2013-03-04 19:40:00,
2013-03-04 11:50:00,51.7,-99.9,30.06,East,84,0.0,0.0,-999,-99.99,,,-99.99,,2013-03-04 19:50:00,
2013-03-04 12:00:00,51.8,-99.9,30.06,East,98,0.0,0.0,-999,-99.99,,,-99.99,,2013-03-04 20:00:00,
2013-03-04 12:05:00,51.8,-99.9,30.06,East,98,0.0,0.0,-999,-99.99,,,-99.99,,2013-03-04 20:05:00,
2013-03-04 12:10:00,51.8,-99.9,30.06,East,98,0.0,0.0,-999,-99.99,,,-99.99,,2013-03-04 20:10:00,
2013-03-04 12:15:00,52.0,-99.9,30.06,WNW,296,9.0,10.8,-999,-99.99,,,-99.99,,2013-03-04 20:15:00,
2013-03-04 12:20:00,52.0,-99.9,30.06,WNW,297,0.0,6.9,-999,-99.99,,,-99.99,,2013-03-04 20:20:00,
2013-03-04 12:25:00,52.2,-99.9,30.05,WNW,297,0.0,0.0,-999,-99.99,,,-99.99,,2013-03-04 20:25:00,
2013-03-04 12:30:00,52.3,-99.9,30.05,WNW,297,0.0,0.0,-999,-99.99,,,-99.99,,2013-03-04 20:30:00,
2013-03-04 12:40:00,52.4,-99.9,30.04,WNW,297,0.0,0.0,-999,-99.99,,,-99.99,,2013-03-04 20:40:00,
2013-03-04 12:50:00,52.6,-99.9,30.04,WNW,297,0.0,0.0,-999,-99.99,,,-99.99,,2013-03-04 20:50:00,
2013-03-04 12:55:00,52.9,-99.9,30.04,WNW,297,0.0,0.0,-999,-99.99,,,-99.99,,2013-03-04 20:55:00,
2013-03-04 13:00:00,53.0,-99.9,30.04,SSE,153,0.0,0.0,-999,-99.99,,,-99.99,,2013-03-04 21:00:00,
2013-03-04 13:05:00,52.9,-99.9,30.04,SSE,153,0.0,0.0,-999,-99.99,,,-99.99,,2013-03-04 21:05:00,
2013-03-04 13:10:00,53.2,-99.9,30.04,SSE,153,0.0,0.0,-999,-99.99,,,-99.99,,2013-03-04 21:10:00,
2013-03-04 13:20:00,53.3,-99.9,30.03,WNW,295,0.0,0.0,-999,-99.99,,,-99.99,,2013-03-04 21:20:00,
2013-03-04 13:25:00,53.5,-99.9,30.03,WNW,295,0.0,0.0,-999,-99.99,,,-99.99,,2013-03-04 21:25:00,
2013-03-04 13:30:00,53.5,-99.9,30.03,WNW,295,0.0,0.0,-999,-99.99,,,-99.99,,2013-03-04 21:30:00,
2013-03-04 13:40:00,53.7,-99.9,30.02,ESE,108,0.0,11.3,-999,-99.99,,,-99.99,,2013-03-04 21:40:00,
2013-03-04 13:50:00,54.0,-99.9,30.01,ESE,118,0.0,12.1,-999,-99.99,,,-99.99,,2013-03-04 21:50:00,
2013-03-04 14:00:00,54.2,-99.9,30.01,East,93,0.0,0.0,-999,-99.99,,,-99.99,,2013-03-04 22:00:00,
2013-03-04 14:10:00,54.4,-99.9,30.00,SE,145,0.0,0.0,-999,-99.99,,,-99.99,,2013-03-04 22:10:00,
2013-03-04 14:15:00,54.4,-99.9,30.00,East,88,0.0,0.0,-999,-99.99,,,-99.99,,2013-03-04 22:15:00,
2013-03-04 14:20:00,54.8,-99.9,30.00,East,101,0.0,8.2,-999,-99.99,,,-99.99,,2013-03-04 22:20:00,
2013-03-04 14:30:00,55.1,-99.9,30.00,ESE,117,0.0,0.0,-999,-99.99,,,-99.99,,2013-03-04 22:30:00,
2013-03-04 14:40:00,55.4,-99.9,30.00,East,87,0.0,0.0,-999,-99.99,,,-99.99,,2013-03-04 22:40:00,
2013-03-04 14:50:00,55.9,-99.9,30.01,ESE,119,0.0,0.0,-999,-99.99,,,-99.99,,2013-03-04 22:50:00,
2013-03-04 15:00:00,56.1,-99.9,30.01,SE,142,0.0,0.0,-999,-99.99,,,-99.99,,2013-03-04 23:00:00,
2013-03-04 15:05:00,56.2,-99.9,30.01,WSW,248,8.0,15.4,-999,-99.99,,,-99.99,,2013-03-04 23:05:00,
2013-03-04 15:10:00,56.0,-99.9,30.01,West,278,0.0,0.0,-999,-99.99,,,-99.99,,2013-03-04 23:10:00,
2013-03-04 15:15:00,56.2,-99.9,30.01,WSW,247,0.0,9.0,-999,-99.99,,,-99.99,,2013-03-04 23:15:00,
2013-03-04 15:20:00,56.0,-99.9,30.01,West,263,0.0,0.0,-999,-99.99,,,-99.99,,2013-03-04 23:20:00,
2013-03-04 15:25:00,56.1,-99.9,30.01,West,280,0.0,0.0,-999,-99.99,,,-99.99,,2013-03-04 23:25:00,
2013-03-04 15:30:00,55.9,-99.9,30.01,South,175,0.0,13.5,-999,-99.99,,,-99.99,,2013-03-04 23:30:00,
2013-03-04 15:40:00,55.8,-99.9,30.01,South,175,0.0,0.0,-999,-99.99,,,-99.99,,2013-03-04 23:40:00,
2013-03-04 15:50:00,55.7,-99.9,30.01,West,266,0.0,0.0,-999,-99.99,,,-99.99,,2013-03-04 23:50:00,
2013-03-04 15:55:00,56.0,-99.9,30.00,West,266,0.0,0.0,-999,-99.99,,,-99.99,,2013-03-04 23:55:00,
2013-03-04 16:00:00,55.9,-99.9,30.00,West,266,0.0,0.0,-999,-99.99,,,-99.99,,2013-03-05 00:00:00,
2013-03-04 16:10:00,55.8,-99.9,30.01,West,280,0.0,0.0,-999,-99.99,,,-99.99,,2013-03-05 00:10:00,
2013-03-04 16:15:00,55.8,-99.9,30.01,WNW,282,0.0,8.9,-999,-99.99,,,-99.99,,2013-03-05 00:15:00,
2013-03-04 16:20:00,55.7,-99.9,30.01,WSW,255,0.0,15.9,-999,-99.99,,,-99.99,,2013-03-05 00:20:00,
2013-03-04 16:30:00,55.5,-99.9,30.01,SW,234,0.0,0.0,-999,-99.99,,,-99.99,,2013-03-05 00:30:00,
2013-03-04 16:35:00,55.6,-99.9,30.00,SW,234,0.0,0.0,-999,-99.99,,,-99.99,,2013-03-05 00:35:00,
2013-03-04 16:40:00,55.6,-99.9,30.00,SW,234,0.0,0.0,-999,-99.99,,,-99.99,,2013-03-05 00:40:00,
2013-03-04 16:50:00,55.9,-99.9,30.00,WSW,239,0.0,7.7,-999,-99.99,,,-99.99,,2013-03-05 00:50:00,
2013-03-04 16:55:00,55.9,-99.9,30.00,WSW,239,0.0,0.0,-999,-99.99,,,-99.99,,2013-03-05 00:55:00,
2013-03-04 17:00:00,55.8,-99.9,30.00,WSW,239,0.0,0.0,-999,-99.99,,,-99.99,,2013-03-05 01:00:00,
2013-03-04 17:05:00,55.9,-99.9,30.00,WSW,239,0.0,0.0,-999,-99.99,,,-99.99,,2013-03-05 01:05:00,
2013-03-04 17:10:00,55.4,-99.9,30.00,WSW,239,0.0,0.0,-999,-99.99,,,-99.99,,2013-03-05 01:10:00,
2013-03-04 17:15:00,55.7,-99.9,30.00,WSW,239,0.0,0.0,-999,-99.99,,,-99.99,,2013-03-05 01:15:00,
2013-03-04 17:20:00,55.8,-99.9,30.00,WSW,239,0.0,0.0,-999,-99.99,,,-99.99,,2013-03-05 01:20:00,
2013-03-04 17:25:00,55.8,-99.9,30.01,WSW,239,0.0,0.0,-999,-99.99,,,-99.99,,2013-03-05 01:25:00,
2013-03-04 17:30:00,55.3,-99.9,30.01,WSW,239,0.0,0.0,-999,-99.99,,,-99.99,,2013-03-05 01:30:00,
2013-03-04 17:40:00,54.8,-99.9,30.01,WSW,239,0.0,0.0,-999,-99.99,,,-99.99,,2013-03-05 01:40:00,
2013-03-04 17:50:00,54.5,-99.9,30.00,WSW,239,0.0,0.0,-999,-99.99,,,-99.99,,2013-03-05 01:50:00,
2013-03-04 17:55:00,54.0,-99.9,30.00,WSW,239,0.0,0.0,-999,-99.99,,,-99.99,,2013-03-05 01:55:00,
2013-03-04 18:00:00,54.2,-99.9,29.99,WSW,239,0.0,0.0,-999,-99.99,,,-99.99,,2013-03-05 02:00:00,
2013-03-04 18:10:00,54.2,-99.9,29.99,WSW,239,0.0,0.0,-999,-99.99,,,-99.99,,2013-03-05 02:10:00,
2013-03-04 18:15:00,54.0,-99.9,29.99,WSW,239,0.0,0.0,-999,-99.99,,,-99.99,,2013-03-05 02:15:00,
2013-03-04 18:20:00,54.0,-99.9,29.99,WSW,239,0.0,0.0,-999,-99.99,,,-99.99,,2013-03-05 02:20:00,
2013-03-04 18:30:00,53.2,-99.9,29.99,WSW,239,0.0,0.0,-999,-99.99,,,-99.99,,2013-03-05 02:30:00,
2013-03-04 18:40:00,53.0,-99.9,29.99,WSW,239,0.0,0.0,-999,-99.99,,,-99.99,,2013-03-05 02:40:00,
2013-03-04 18:45:00,53.1,-99.9,29.99,WSW,239,0.0,0.0,-999,-99.99,,,-99.99,,2013-03-05 02:45:00,
2013-03-04 18:50:00,53.0,-99.9,29.99,WSW,239,0.0,0.0,-999,-99.99,,,-99.99,,2013-03-05 02:50:00,
2013-03-04 19:00:00,52.9,-99.9,29.98,WSW,239,0.0,0.0,-999,-99.99,,,-99.99,,2013-03-05 03:00:00,
2013-03-04 19:10:00,52.1,-99.9,29.98,WSW,239,0.0,0.0,-999,-99.99,,,-99.99,,2013-03-05 03:10:00,
2013-03-04 19:15:00,52.1,-99.9,29.98,WSW,239,0.0,0.0,-999,-99.99,,,-99.99,,2013-03-05 03:15:00,
2013-03-04 19:20:00,52.0,-99.9,29.98,WSW,239,0.0,0.0,-999,-99.99,,,-99.99,,2013-03-05 03:20:00,
2013-03-04 19:25:00,52.0,-99.9,29.98,WSW,239,0.0,0.0,-999,-99.99,,,-99.99,,2013-03-05 03:25:00,
2013-03-04 19:30:00,52.1,-99.9,29.99,WSW,239,0.0,0.0,-999,-99.99,,,-99.99,,2013-03-05 03:30:00,
2013-03-04 19:35:00,51.8,-99.9,29.99,WSW,239,0.0,0.0,-999,-99.99,,,-99.99,,2013-03-05 03:35:00,
2013-03-04 19:40:00,52.3,-99.9,29.99,WSW,239,0.0,0.0,-999,-99.99,,,-99.99,,2013-03-05 03:40:00,
2013-03-04 19:50:00,52.3,-99.9,29.98,WSW,239,0.0,0.0,-999,-99.99,,,-99.99,,2013-03-05 03:50:00,
2013-03-04 19:55:00,52.8,-99.9,29.98,WSW,239,0.0,0.0,-999,-99.99,,,-99.99,,2013-03-05 03:55:00,
2013-03-04 20:00:00,52.1,-99.9,29.98,WSW,239,0.0,0.0,-999,-99.99,,,-99.99,,2013-03-05 04:00:00,
2013-03-04 20:05:00,51.9,-99.9,29.98,WSW,239,0.0,0.0,-999,-99.99,,,-99.99,,2013-03-05 04:05:00,
2013-03-04 20:10:00,52.6,-99.9,29.98,WSW,239,0.0,0.0,-999,-99.99,,,-99.99,,2013-03-05 04:10:00,
2013-03-04 20:15:00,52.7,-99.9,29.98,WSW,239,0.0,0.0,-999,-99.99,,,-99.99,,2013-03-05 04:15:00,
2013-03-04 20:20:00,51.3,-99.9,29.98,WSW,239,0.0,0.0,-999,-99.99,,,-99.99,,2013-03-05 04:20:00,
2013-03-04 20:25:00,50.8,-99.9,29.98,WSW,239,0.0,0.0,-999,-99.99,,,-99.99,,2013-03-05 04:25:00,
2013-03-04 20:30:00,51.6,-99.9,29.98,WSW,239,0.0,0.0,-999,-99.99,,,-99.99,,2013-03-05 04:30:00,
2013-03-04 20:35:00,50.8,-99.9,29.98,WSW,239,0.0,0.0,-999,-99.99,,,-99.99,,2013-03-05 04:35:00,
2013-03-04 20:40:00,51.4,-99.9,29.98,WSW,239,0.0,0.0,-999,-99.99,,,-99.99,,2013-03-05 04:40:00,
2013-03-04 20:45:00,51.2,-99.9,29.98,WSW,239,0.0,0.0,-999,-99.99,,,-99.99,,2013-03-05 04:45:00,
2013-03-04 20:50:00,50.6,-99.9,29.98,WSW,239,0.0,0.0,-999,-99.99,,,-99.99,,2013-03-05 04:50:00,
2013-03-04 20:55:00,50.1,-99.9,29.99,WSW,239,0.0,0.0,-999,-99.99,,,-99.99,,2013-03-05 04:55:00,
2013-03-04 21:00:00,50.3,-99.9,29.99,WSW,239,0.0,0.0,-999,-99.99,,,-99.99,,2013-03-05 05:00:00,
2013-03-04 21:05:00,50.0,-99.9,29.99,WSW,239,0.0,0.0,-999,-99.99,,,-99.99,,2013-03-05 05:05:00,
2013-03-04 21:10:00,50.4,-99.9,29.99,WSW,239,0.0,0.0,-999,-99.99,,,-99.99,,2013-03-05 05:10:00,
2013-03-04 21:15:00,50.2,-99.9,29.99,WSW,239,0.0,0.0,-999,-99.99,,,-99.99,,2013-03-05 05:15:00,
2013-03-04 21:20:00,50.3,-99.9,29.99,WSW,239,0.0,0.0,-999,-99.99,,,-99.99,,2013-03-05 05:20:00,
2013-03-04 21:25:00,50.5,-99.9,29.99,WSW,239,0.0,0.0,-999,-99.99,,,-99.99,,2013-03-05 05:25:00,
2013-03-04 21:30:00,50.1,-99.9,29.99,WSW,239,0.0,0.0,-999,-99.99,,,-99.99,,2013-03-05 05:30:00,
2013-03-04 21:35:00,50.0,-99.9,29.99,WSW,239,0.0,0.0,-999,-99.99,,,-99.99,,2013-03-05 05:35:00,
2013-03-04 21:40:00,50.2,-99.9,29.99,WSW,239,0.0,0.0,-999,-99.99,,,-99.99,,2013-03-05 05:40:00,
2013-03-04 21:45:00,50.1,-99.9,29.99,WSW,239,0.0,0.0,-999,-99.99,,,-99.99,,2013-03-05 05:45:00,
2013-03-04 21:50:00,49.5,-99.9,29.99,WSW,239,0.0,0.0,-999,-99.99,,,-99.99,,2013-03-05 05:50:00,
2013-03-04 21:55:00,49.7,-99.9,29.99,WSW,239,0.0,0.0,-999,-99.99,,,-99.99,,2013-03-05 05:55:00,
2013-03-04 22:00:00,49.4,-99.9,29.99,WSW,239,0.0,0.0,-999,-99.99,,,-99.99,,2013-03-05 06:00:00,
2013-03-04 22:05:00,49.6,-99.9,29.99,WSW,239,0.0,0.0,-999,-99.99,,,-99.99,,2013-03-05 06:05:00,
2013-03-04 22:10:00,49.4,-99.9,29.99,WSW,239,0.0,0.0,-999,-99.99,,,-99.99,,2013-03-05 06:10:00,
2013-03-04 22:20:00,49.5,-99.9,29.98,WSW,239,0.0,0.0,-999,-99.99,,,-99.99,,2013-03-05 06:20:00,
2013-03-04 22:25:00,49.2,-99.9,29.99,WSW,239,0.0,0.0,-999,-99.99,,,-99.99,,2013-03-05 06:25:00,
2013-03-04 22:30:00,49.1,-99.9,29.99,WSW,239,0.0,0.0,-999,-99.99,,,-99.99,,2013-03-05 06:30:00,
2013-03-04 22:40:00,49.2,-99.9,29.99,WSW,239,0.0,0.0,-999,-99.99,,,-99.99,,2013-03-05 06:40:00,
2013-03-04 22:45:00,49.2,-99.9,29.99,WSW,239,0.0,0.0,-999,-99.99,,,-99.99,,2013-03-05 06:45:00,
2013-03-04 22:50:00,49.1,-99.9,29.98,WSW,239,0.0,0.0,-999,-99.99,,,-99.99,,2013-03-05 06:50:00,
2013-03-04 22:55:00,49.2,-99.9,29.98,WSW,239,0.0,0.0,-999,-99.99,,,-99.99,,2013-03-05 06:55:00,
2013-03-04 23:00:00,49.1,-99.9,29.98,WSW,239,0.0,0.0,-999,-99.99,,,-99.99,,2013-03-05 07:00:00,
2013-03-04 23:10:00,48.8,-99.9,29.98,WSW,239,0.0,0.0,-999,-99.99,,,-99.99,,2013-03-05 07:10:00,
2013-03-04 23:15:00,49.1,-99.9,29.98,WSW,239,0.0,0.0,-999,-99.99,,,-99.99,,2013-03-05 07:15:00,
2013-03-04 23:20:00,49.0,-99.9,29.98,WSW,239,0.0,0.0,-999,-99.99,,,-99.99,,2013-03-05 07:20:00,
2013-03-04 23:25:00,48.7,-99.9,29.98,WSW,239,0.0,0.0,-999,-99.99,,,-99.99,,2013-03-05 07:25:00,
2013-03-04 23:30:00,48.7,-99.9,29.98,WSW,239,0.0,0.0,-999,-99.99,,,-99.99,,2013-03-05 07:30:00,
2013-03-04 23:35:00,48.2,-99.9,29.98,WSW,239,0.0,0.0,-999,-99.99,,,-99.99,,2013-03-05 07:35:00,
2013-03-04 23:40:00,48.4,-99.9,29.98,WSW,239,0.0,0.0,-999,-99.99,,,-99.99,,2013-03-05 07:40:00,
2013-03-04 23:45:00,47.9,-99.9,29.98,WSW,239,0.0,0.0,-999,-99.99,,,-99.99,,2013-03-05 07:45:00,
2013-03-04 23:50:00,48.5,-99.9,29.98,WSW,239,0.0,0.0,-999,-99.99,,,-99.99,,2013-03-05 07:50:00,
2013-03-04 23:55:00,48.4,-99.9,29.98,WSW,239,0.0,0.0,-999,-99.99,,,-99.99,,2013-03-05 07:55:00,